sat.trackr.live / text

‹ back to catalog

STARLINK-1302

NORAD 45375 · 2020-019R

PAYLOAD ACTIVE UNKNOWN

§ Identity

Operator
Country
US
Launch date
2020-03-18
Launch site
AFETR
Launch vehicle
Mass (kg)
RCS (m²)

Purposes: comms

External: N2YO · Heavens-Above · Gunter

§ Orbital elements

Epoch: 2026-05-24T23:42:19.833120Z

Period
91.97 min
Inclination
53.0454°
Eccentricity
0.0005515
Mean motion
15.65652031 rev/d
Perigee alt
367.6 km
Apogee alt
375.1 km
Semi-major
6,749.5 km
B*
4.1075e-4
RAAN
139.8781°
Arg perigee
26.3365°
Mean anomaly
333.7929°
Rev number
34,185

§ Raw data

STARLINK-13021 45375U 20019R   26144.98772955  .00041864  00000+0  41075-3 0  99972 45375  53.0454 139.8781 0005515  26.3365 333.7929 15.65652031341856

JSON: /api/v1/satellites/45375 · /tle

For live sub-satellite position, see the globe view (requires WebGL).

§ Visibility from observer

Set your observer location to see the next 7 days of passes ≥ 10°. The values pass through the URL so the page stays shareable.

No JS? Fill the form by hand. The geolocation button needs JavaScript.